Torna al catalogo

NOAA 16 DEB

LostSSO
NORAD 41346·DEBRIS·🇺🇸 United States

Lanciato Sep 21, 2000 da Vandenberg Space Force Base

Loading…

Prossimi Passaggi (prossime 24 ore)

TLE

ObsoletoSource: Space-Track

Epoca: Mar 17, 2025, 13:34 UTC

1 41346U 00055HP  25076.56548172  .00003051  00000-0  24007-2 0  9990
2 41346  98.9737 358.1136 0160307 101.9917 259.9259 13.86655791461930

Traccia NOAA 16 DEB in tempo reale con AllMySat

Download on the App Store